Orbital Elements at Epoch 2459200.5 (2020-Dec-17.0) TDB
Reference: JPL 25 (heliocentric ecliptic J2000)
Element | Value | Uncertainty (1-sigma) | Units |
e | .2729272683543024 | 3.1925e-08 | |
a | 2.579309155449004 | 1.1099e-08 | au |
q | 1.875345353411064 | 8.2085e-08 | au |
i | 4.339611498431567 | 4.1564e-06 | deg |
node | 37.11079678994949 | 5.3289e-05 | deg |
peri | 284.0671031472767 | 5.4272e-05 | deg |
M | 157.815346741948 | 1.3617e-05 | deg |
tp | 2458537.214872389967 (2019-Feb-22.71487239) | 5.3895e-05 | TDB |
period | 1513.050858926018 4.14 | 9.7664e-06 2.674e-08 | d yr |
n | .2379298738546915 | 1.5358e-09 | deg/d |
Q | 3.283272957486943 | 1.4129e-08 | au |
|
| | Orbit Determination Parameters
Additional Information
|